Bat Cave, NC

1:33 PM EDT on September 30, 2016 (GMT -0400)
Asheville Regional

Weather History for KAVL - July, 2013

Change the Weather History Date:

Sunday, July 21, 2013

  Actual Average Record
Temperature  
Mean Temperature 76 °F 74 °F  
Max Temperature 83 °F 84 °F 96 °F (1926)
Min Temperature 68 °F 64 °F 50 °F (1929)
Degree Days  
Heating Degree Days 0 0  
Month to date heating degree days 0 0  
Since 1 June heating degree days 0 14  
Since 1 July heating degree days 0 0  
Cooling Degree Days 11 9  
Month to date cooling degree days 190 185  
Year to date cooling degree days 443 420  
Since 1 June cooling degree days 392 362  
Growing Degree Days 25 (Base 50)    
Moisture  
Dew Point 68 °F    
Average Humidity 79    
Maximum Humidity 100    
Minimum Humidity 58    
Precipitation  
Precipitation 0.37 in 0.14 in 2.95 in (2003)
Month to date precipitation 10.91 2.93  
Year to date precipitation 49.00 25.83  
Snow  
Snow 0.00 in 0.00 in 0.00 in ()
Month to date snowfall 0.0 0.0  
Since 1 June snowfall 0.0 0.0  
Since 1 July snowfall 0.0 0.0  
Snow Depth 0.00 in    
Sea Level Pressure  
Sea Level Pressure 30.03 in    
Wind  
Wind Speed 3 mph (NW)    
Max Wind Speed 13 mph    
Max Gust Speed 16 mph    
Visibility 6 miles    
Events Rain    
T = Trace of Precipitation, MM = Missing Value Source: NWS Daily Summary

Daily Weather History Graph

Daily Weather History Graph

Search for Another Location

Airport or City:

Trip Planner

Search our weather history database for the weather conditions in past years. The results will help you decide how hot, cold, wet, or windy it might be!

Date:

Astronomy

Jul. 21, 2013 Rise Set
Actual Time 6:30 AM EDT 8:42 PM EDT
Civil Twilight 6:01 AM EDT 9:10 PM EDT
Nautical Twilight 5:26 AM EDT 9:45 PM EDT
Astronomical Twilight 4:48 AM EDT 10:23 PM EDT
Moon 7:40 PM EDT (7/21) 5:14 AM EDT (7/21)
Length of Visible Light 15h 08m
Length of Day
14h 11m
Waxing Gibbous, 98% of the Moon is Illuminated
Jul 21
Waxing Gibbous
Jul 22
Full
Jul 29
Last Quarter
Aug 6
New
Aug 14
First Quarter

Hourly Weather History & Observations

Time (EDT) Temp. Heat Index Dew Point Humidity Pressure Visibility Wind Dir Wind Speed Gust Speed Precip Events Conditions
12:01 AM 69.8 °F - 69.8 °F 100% 30.09 in 8.0 mi SE 3.5 mph - N/A   Partly Cloudy
12:36 AM 71.6 °F - 69.8 °F 94% 30.09 in 8.0 mi Calm Calm - N/A   Mostly Cloudy
12:54 AM 71.1 °F - 69.1 °F 93% 30.00 in 8.0 mi Calm Calm - N/A   Overcast
1:50 AM 69.8 °F - 69.8 °F 100% 30.08 in 7.0 mi Calm Calm - 0.00 in   Overcast
1:54 AM 70.0 °F - 69.1 °F 97% 30.00 in 8.0 mi Calm Calm - 0.00 in   Overcast
2:26 AM 69.8 °F - 69.8 °F 100% 30.07 in 9.0 mi South 3.5 mph - N/A   Overcast
2:54 AM 70.0 °F - 69.1 °F 97% 29.99 in 7.0 mi Calm Calm - N/A   Overcast
3:19 AM 69.8 °F - 69.8 °F 100% 30.06 in 6.0 mi Calm Calm - N/A   Overcast
3:54 AM 70.0 °F - 69.1 °F 97% 29.98 in 5.0 mi Calm Calm - N/A   Overcast
4:28 AM 69.8 °F - 68.0 °F 94% 30.05 in 5.0 mi WSW 3.5 mph - N/A   Overcast
4:54 AM 70.0 °F - 68.0 °F 93% 29.97 in 7.0 mi Calm Calm - N/A   Overcast
5:42 AM 68.0 °F - 66.2 °F 94% 30.05 in 5.0 mi North 5.8 mph - N/A   Overcast
5:54 AM 68.0 °F - 66.9 °F 96% 29.98 in 3.0 mi NNW 4.6 mph - N/A   Overcast
5:58 AM 68.0 °F - 66.2 °F 94% 30.05 in 1.8 mi NNW 4.6 mph - N/A   Overcast
6:07 AM 68.0 °F - 66.2 °F 94% 30.06 in 1.0 mi North 3.5 mph - N/A   Overcast
6:25 AM 68.0 °F - 66.2 °F 94% 30.06 in 2.0 mi NNW 5.8 mph - N/A   Overcast
6:42 AM 68.0 °F - 66.2 °F 94% 30.06 in 1.5 mi NW 4.6 mph - N/A   Overcast
6:54 AM 68.0 °F - 66.9 °F 96% 29.99 in 2.0 mi WNW 3.5 mph - N/A   Overcast
7:24 AM 69.8 °F - 66.2 °F 88% 30.07 in 2.0 mi NNW 5.8 mph - N/A   Scattered Clouds
7:36 AM 69.8 °F - 66.2 °F 88% 30.08 in 4.0 mi NNW 8.1 mph - N/A   Scattered Clouds
7:54 AM 69.1 °F - 66.0 °F 90% 30.01 in 4.0 mi North 5.8 mph - N/A   Scattered Clouds
8:54 AM 72.0 °F - 66.9 °F 84% 30.02 in 10.0 mi North 8.1 mph - N/A   Partly Cloudy
9:54 AM 73.0 °F - 66.9 °F 81% 30.03 in 10.0 mi North 6.9 mph - N/A   Clear
10:54 AM 75.9 °F - 68.0 °F 76% 30.02 in 10.0 mi NNW 5.8 mph - N/A   Clear
11:54 AM 80.1 °F 82.9 °F 69.1 °F 69% 30.02 in 10.0 mi NNW 8.1 mph - N/A   Clear
12:54 PM 82.0 °F 84.5 °F 66.9 °F 60% 29.99 in 10.0 mi Calm Calm - N/A   Partly Cloudy
1:54 PM 75.0 °F - 71.1 °F 87% 29.99 in 6.0 mi West 4.6 mph - 0.01 in Rain Light Rain
2:54 PM 73.9 °F - 68.0 °F 82% 29.98 in 10.0 mi SW 5.8 mph - 0.00 in   Scattered Clouds
3:54 PM 73.9 °F - 69.1 °F 85% 29.99 in 6.0 mi NW 3.5 mph - 0.00 in Rain Rain
4:54 PM 77.0 °F - 68.0 °F 74% 29.96 in 10.0 mi NNW 8.1 mph - 0.02 in   Mostly Cloudy
5:42 PM 73.4 °F - 66.2 °F 78% 30.06 in 10.0 mi NW 12.7 mph - 0.00 in Rain Light Rain
5:51 PM 71.6 °F - 68.0 °F 88% 30.06 in 1.8 mi WNW 10.4 mph - 0.04 in Rain Heavy Rain
5:54 PM 71.1 °F - 68.0 °F 90% 29.99 in 1.2 mi WNW 9.2 mph - 0.06 in Rain Heavy Rain
6:04 PM 71.6 °F - 69.8 °F 94% 30.06 in 2.0 mi NNW 10.4 mph - 0.08 in Rain Rain
6:14 PM 71.6 °F - 66.2 °F 83% 30.06 in 4.0 mi NNW 10.4 mph - 0.10 in Rain Rain
6:54 PM 70.0 °F - 66.9 °F 90% 29.99 in 10.0 mi Calm Calm - 0.16 in Rain Light Rain
7:54 PM 69.1 °F - 66.9 °F 93% 29.99 in 6.0 mi South 3.5 mph - 0.09 in Rain Rain
8:13 PM 69.8 °F - 68.0 °F 94% 30.05 in 9.0 mi SE 3.5 mph - 0.01 in Rain Light Rain
8:25 PM 69.8 °F - 68.0 °F 94% 30.06 in 8.0 mi SE 3.5 mph - 0.02 in Rain Light Rain
8:54 PM 69.1 °F - 68.0 °F 96% 29.98 in 10.0 mi SE 3.5 mph - 0.02 in Rain Light Rain
9:10 PM 69.8 °F - 68.0 °F 94% 30.06 in 9.0 mi Calm Calm - 0.00 in Rain Light Rain
9:54 PM 69.1 °F - 68.0 °F 96% 30.00 in 10.0 mi Calm Calm - 0.00 in   Mostly Cloudy
10:16 PM 69.8 °F - 68.0 °F 94% 30.07 in 10.0 mi Calm Calm - 0.01 in Rain Light Rain
10:54 PM 69.1 °F - 66.9 °F 93% 30.01 in 10.0 mi Calm Calm - 0.01 in   Mostly Cloudy
11:54 PM 68.0 °F - 66.9 °F 96% 30.01 in 10.0 mi Calm Calm - 0.00 in Rain Light Rain